This demonstration page uses our WeatherBlox Daily Observations layout. Learn more.

Left ArrowRight Arrow

30.21309, -93.2044

Hourly Observations for July 10, 2021

Temp ( °F °C ) Dew Point ( °F °C ) Humidity (%) Winds ( mph kmh ) Pressure ( in mb ) Visibility ( mi km ) Precip ( " mm )
12:15 am 00:15 Mostly Cloudy 78 25.5 76 24.4 94 94 E 5 7 30.08 1019 10 16 0.00 0.00
12:35 am 00:35 Partly Cloudy 78 25.3 76 24.3 94 94 E 5 7 30.08 1019 10 16 0.00 0.00
12:55 am 00:55 Partly Cloudy 78 25.5 76 24.6 95 95 ESE 7 11 30.07 1018 7 11 0.00 0.00
1:15 am 01:15 Mostly Cloudy 78 25.5 76 24.6 95 95 ESE 5 7 30.06 1018 7 11 0.00 0.00
1:35 am 01:35 Mostly Cloudy 78 25.5 76 24.6 95 95 SE 6 9 30.06 1018 10 16 0.00 0.00
1:55 am 01:55 Mostly Cloudy 78 25.7 76 24.6 94 94 SE 6 9 30.05 1018 10 16 0.00 0.00
2:15 am 02:15 Mostly Cloudy 79 25.9 76 24.7 93 93 SSE 5 7 30.05 1018 10 16 0.00 0.00
2:35 am 02:35 Partly Cloudy 78 25.8 76 24.6 93 93 SE 6 9 30.05 1018 10 16 0.00 0.00
2:55 am 02:55 Partly Cloudy 78 25.7 76 24.6 94 94 SE 6 9 30.03 1017 7 11 0.00 0.00
3:15 am 03:15 Partly Cloudy 79 26.1 77 25.1 94 94 SSE 6 9 30.03 1017 7 11 0.00 0.00
3:35 am 03:35 Partly Cloudy with Mist and Fog 79 26.1 77 25.2 95 95 SSE 6 9 30.03 1017 7 11 0.00 0.00
3:55 am 03:55 Mostly Cloudy with Mist and Fog 79 26.1 77 25.2 95 95 SE 5 7 30.03 1017 7 11 0.00 0.00
4:15 am 04:15 Partly Cloudy 79 26.1 77 25.2 95 95 SE 6 9 30.04 1017 7 11 0.00 0.00
4:35 am 04:35 Clear 79 26.1 77 25.1 94 94 SSE 7 11 30.04 1017 10 16 0.00 0.00
4:55 am 04:55 Clear 79 26 77 25 94 94 SSE 6 9 30.04 1017 10 16 0.00 0.00
5:15 am 05:15 Clear 79 25.9 77 24.9 94 94 SE 6 9 30.05 1018 10 16 0.00 0.00
5:35 am 05:35 Clear 79 26 77 25 94 94 SSE 5 7 30.06 1018 10 16 0.00 0.00
6:00 am 06:00 Mostly Clear 79 26 77 25 94 94 SSE 5 7 30.07 1018 10 16 0.00 0.00
6:52 am 06:52 Mostly Cloudy with Mist and Fog 79 26 77 25 94 94 Calm 30.09 1019 7 11 0.00 0.00
7:51 am 07:51 Mostly Cloudy 81 27 79 26 94 94 SE 6 9 30.09 1019 10 16 0.00 0.00
8:47 am 08:47 Partly Cloudy 82 28 79 26 89 89 SSW 7 11 30.11 1020 10 16 0.00 0.00
9:51 am 09:51 Mostly Cloudy with Light Rain 79 26 72 22 79 79 SSW 13 20 30.11 1020 4 6 0.00 0.00
10:14 am 10:14 Mostly Cloudy with Thunderstorms 81 27 75 24 84 84 S 6 9 30.12 1020 10 16 0.00 0.00
10:52 am 10:52 Mostly Cloudy with Light Rain 75 24 72 22 89 89 WSW 8 13 30.11 1020 10 16 0.00 0.00
11:50 am 11:50 Partly Cloudy with Light Rain 79 26 73 23 84 84 Calm 30.10 1019 10 16 0.00 0.00
12:55 pm 12:55 Partly Cloudy 84 29 79 26 84 84 S 7 11 30.07 1018 10 16 0.00 0.00
1:49 pm 13:49 Mostly Cloudy 88 31 77 25 70 70 S 15 24 30.06 1018 10 16 0.00 0.00
2:50 pm 14:50 Partly Cloudy 88 31 75 24 66 66 SSW 14 22 30.06 1018 10 16 0.00 0.00
3:50 pm 15:50 Mostly Cloudy 88 31 75 24 66 66 SSW 17 28 30.03 1017 10 16 0.00 0.00
4:50 pm 16:50 Partly Cloudy 88 31 75 24 66 66 SSW 14 22 30.02 1017 10 16 0.00 0.00
5:50 pm 17:50 Partly Cloudy 86 30 75 24 70 70 SW 13 20 30.01 1016 10 16 0.00 0.00
6:50 pm 18:50 Partly Cloudy 88 31 75 24 66 66 SSW 14 22 30.01 1016 10 16 0.00 0.00
7:50 pm 19:50 Partly Cloudy 82 28 75 24 79 79 SSW 10 17 30.01 1016 10 16 0.00 0.00
8:50 pm 20:50 Mostly Clear 81 27 77 25 89 89 S 8 13 30.02 1017 10 16 0.00 0.00
9:50 pm 21:50 Partly Cloudy 81 27 77 25 89 89 S 5 7 30.02 1017 10 16 0.00 0.00
10:15 pm 22:15 Partly Cloudy 79 26.1 77 24.8 93 93 SSE 5 7 30.02 1017 10 16 0.00 0.00
10:35 pm 22:35 Partly Cloudy 79 25.9 76 24.7 93 93 SSE 5 7 30.02 1017 7 11 0.00 0.00
10:55 pm 22:55 Partly Cloudy with Mist and Fog 78 25.8 77 24.8 94 94 SSE 6 9 30.02 1017 7 11 0.00 0.00

Powered by AerisWeather